Wetbulb
67.20 70.00 72.87 72.22 72.67 72.76 72.93 72.94 73.30 73.45 73.41 73.40 73.31 73.21 73.04 72.84 72.88 73.46 73.42 73.92 73.58 73.52 73.35 73.25 72.90 72.80 72.21 72.06 71.76 71.70 71.83 71.16 70.82 70.70 70.92 70.89 71.14 70.60 70.25 70.43 69.94 68.11 70.28
68.90 70.54 72.45 72.27 72.65 72.64 72.47 72.59 73.20 73.23 73.20 73.25 72.74 72.96 72.94 72.88 72.71 72.55 72.62 73.00 72.96 72.95 72.76 72.60 72.64 72.50 71.95 71.60 71.28 71.19 71.19 70.84 70.43 69.52 68.72 68.89 69.14 68.87 68.89 69.02 69.18 67.50 68.40
69.15 70.52 70.55 72.68 72.80 72.68 72.46 72.78 72.69 72.95 72.76 73.03 73.33 72.69 72.66 72.65 72.50 72.50 72.47 72.47 72.42 72.25 72.22 72.27 71.86 71.53 70.99 70.52 71.23 71.27 70.20 69.88 69.22 68.50 68.01 64.59 65.85 68.28 68.40 67.59 67.24 67.49 67.73
69.32 69.91 69.90 72.22 72.71 72.41 72.43 72.59 72.89 72.92 73.06 72.64 72.55 72.53 72.43 72.42 72.40 72.49 72.34 72.13 72.04 71.89 71.70 71.38 70.79 70.36 70.39 70.86 71.15 70.65 69.97 69.50 68.30 66.99 64.70 64.16 64.65 67.52 67.50 67.51 67.19 67.07 67.04
68.77 69.72 70.20 72.13 71.86 72.06 72.67 72.60 72.95 73.05 72.87 72.58 72.53 72.52 72.28 71.99 71.89 71.47 71.05 71.07 71.48 71.38 71.00 70.35 69.99 69.96 69.82 70.58 70.62 69.73 69.58 67.81 66.43 64.64 62.99 62.75 63.71 66.08 67.16 66.73 66.45 66.76 66.61
68.42 69.79 70.33 71.95 72.16 72.04 71.88 72.20 72.58 72.77 72.05 72.13 72.03 71.90 72.03 71.15 70.77 70.63 70.50 71.08 70.82 70.72 70.15 69.58 69.34 69.23 69.27 69.60 69.66 69.96 67.74 66.41 64.58 61.36 61.08 63.32 62.51 66.62 66.80 66.51 66.36 66.41 66.40
68.03 69.15 69.93 71.58 71.88 71.57 71.57 71.62 71.75 72.16 72.32 71.61 71.84 71.82 70.71 70.42 70.29 70.30 70.42 70.74 70.59 70.44 69.44 68.87 68.26 68.22 68.20 68.74 68.77 69.25 66.50 65.04 61.33 60.34 60.43 61.01 62.60 66.29 66.42 66.24 66.04 65.91 65.93
67.65 68.61 69.45 70.24 70.63 70.66 70.76 70.94 71.00 71.02 71.19 71.53 71.27 71.19 70.67 70.30 69.96 69.74 69.72 70.51 70.37 69.33 68.75 68.11 67.55 67.17 67.07 67.77 67.55 67.45 65.66 63.84 61.01 59.61 59.71 61.01 65.84 66.13 66.10 65.74 65.49 65.49 65.36
67.56 67.68 67.90 68.30 69.12 69.44 69.92 69.76 69.97 70.14 70.29 70.19 70.22 70.38 70.25 70.08 69.95 69.43 69.63 69.86 69.58 68.95 68.40 67.67 67.08 66.64 66.49 66.55 66.99 66.24 64.66 63.34 59.12 60.01 61.32 60.35 65.77 65.79 65.76 65.45 65.18 65.17 65.06
66.15 65.47 64.86 64.67 64.88 65.32 66.43 68.14 68.18 68.41 68.33 68.40 68.03 67.44 67.42 67.78 68.25 68.37 68.27 69.30 69.61 68.87 68.09 67.38 66.67 66.02 65.79 65.96 65.72 65.17 63.37 62.26 58.46 59.57 60.13 62.04 65.11 65.44 65.37 65.10 64.92 64.87 64.83
64.76 64.10 63.69 62.99 64.40 65.65 65.88 66.01 66.90 67.03 66.71 66.63 66.31 65.61 64.97 64.08 64.38 64.94 65.43 66.59 68.38 68.70 67.87 67.07 66.27 65.37 64.31 63.02 63.91 63.11 61.47 59.16 58.99 59.35 60.27 65.21 65.17 65.21 65.09 64.84 64.79 64.88 64.85
62.44 63.15 62.63 63.81 64.33 65.30 65.68 65.15 64.49 64.22 63.63 64.01 64.07 63.21 62.85 62.33 62.70 63.20 62.70 64.28 65.77 66.18 66.78 66.82 66.00 65.09 62.91 57.80 56.13 59.59 57.90 58.19 58.40 59.18 61.11 65.30 64.86 65.05 64.78 64.53 64.61 64.44 64.17
62.21 62.90 63.29 64.00 64.17 64.12 64.33 62.58 61.93 61.99 61.00 61.49 61.94 61.29 61.00 60.88 60.40 60.24 59.23 58.84 59.12 59.88 58.88 59.46 58.41 57.42 55.52 54.59 54.34 54.45 56.57 56.94 57.01 58.54 62.02 64.87 64.92 64.50 64.44 64.54 64.02 63.84 63.63
62.14 61.93 62.72 64.26 63.63 62.53 64.18 62.16 62.31 61.21 60.27 60.08 60.85 60.59 59.21 58.90 58.42 57.10 57.28 57.78 57.48 58.61 57.02 56.04 54.58 53.15 53.02 52.36 51.98 52.11 54.63 54.85 55.33 56.74 59.50 63.16 63.97 64.35 64.23 63.22 62.54 62.27 61.48
62.20 62.63 62.35 64.63 63.79 63.93 64.05 62.68 62.79 60.13 59.80 59.89 60.16 60.66 60.29 59.02 58.18 58.09 57.37 57.14 56.21 55.87 54.24 53.01 52.41 51.74 51.16 51.53 50.56 50.47 51.98 52.95 54.24 56.31 57.69 61.35 62.23 61.78 61.36 60.85 61.05 61.02 60.39
62.60 62.40 63.12 63.61 63.63 64.89 64.24 63.58 62.38 59.80 59.58 59.38 58.96 59.17 60.14 59.22 57.86 58.20 57.43 57.04 56.30 55.25 54.28 53.20 52.49 51.99 51.77 51.95 51.57 50.30 49.67 51.99 52.95 55.09 56.05 56.88 59.37 59.13 58.64 59.34 59.28 58.81 59.16
62.32 62.98 62.84 62.38 62.68 64.50 64.10 63.89 62.30 61.26 60.53 58.94 58.76 59.14 59.99 59.62 58.75 58.46 57.83 57.15 56.60 55.89 54.89 53.71 53.18 52.64 51.93 52.51 51.49 50.97 50.12 50.63 51.96 53.31 52.89 52.07 52.96 57.00 56.61 56.99 57.00 57.13 57.48
62.78 62.68 63.41 63.39 62.62 63.41 62.63 62.93 62.35 62.54 61.42 59.98 58.69 58.91 61.59 60.18 59.50 58.53 58.15 57.37 57.40 55.85 54.56 53.59 52.82 52.64 51.67 50.66 49.62 49.34 48.42 49.25 49.87 50.91 52.17 51.14 49.01 49.94 53.81 54.58 54.26 54.78 55.41
63.27 63.23 63.44 63.70 63.37 63.40 63.16 62.52 61.93 62.13 61.33 61.26 58.84 58.88 59.32 59.86 59.77 58.63 57.89 57.43 56.71 55.39 54.15 54.43 53.40 53.01 49.65 49.27 50.50 48.42 48.24 49.28 49.74 49.99 47.64 48.00 47.71 48.36 49.02 53.13 52.71 51.98 52.00
63.68 63.86 64.05 63.69 63.67 63.42 62.79 61.95 61.63 61.52 60.86 60.87 60.57 59.52 59.47 59.21 59.31 60.19 58.83 57.28 56.42 54.73 54.04 53.95 52.40 51.82 48.81 48.77 51.29 48.78 48.32 48.79 48.20 46.48 45.78 46.80 44.13 45.14 47.27 45.23 44.17 45.65 49.69
63.51 63.27 63.65 63.58 63.47 62.97 62.09 60.15 60.54 59.83 59.14 59.76 59.90 61.06 60.21 59.42 59.29 60.16 57.55 56.61 56.07 54.67 54.12 53.65 52.13 50.96 49.61 48.73 47.90 47.25 47.48 48.26 48.08 47.28 45.63 44.45 43.80 43.79 42.94 42.29 40.84 39.85 40.96
61.97 62.67 62.67 63.29 63.70 63.32 62.84 60.27 59.63 58.94 58.07 58.04 59.04 60.37 60.54 60.62 59.30 58.57 57.26 56.52 55.83 54.41 53.64 53.11 52.65 50.55 49.96 49.86 47.42 46.17 44.21 46.59 47.98 48.67 45.97 44.04 42.28 43.21 42.67 42.10 40.19 39.27 38.82
60.65 61.26 61.90 62.72 63.21 63.36 62.14 60.95 59.28 58.47 58.01 57.33 57.41 58.16 60.51 61.17 59.55 58.70 57.49 56.83 55.75 54.61 53.39 52.81 52.46 50.82 48.62 48.73 49.59 47.90 43.76 42.97 45.06 47.46 47.55 41.89 40.79 40.85 40.93 41.41 40.53 39.99 39.21
60.14 61.32 61.95 62.72 62.65 62.73 62.82 61.02 59.72 58.81 56.23 56.66 57.42 58.00 59.35 61.01 59.90 58.32 57.61 56.95 55.97 54.69 53.25 52.24 52.70 51.26 49.33 46.95 46.12 48.18 45.40 46.53 43.72 43.07 46.72 42.92 39.95 40.42 40.04 40.47 39.88 39.68 39.22
60.64 60.84 61.26 61.79 62.12 62.57 62.30 60.61 59.55 57.60 56.91 57.00 56.91 57.08 57.44 58.33 59.54 57.99 57.58 56.75 55.44 54.45 53.37 51.58 51.31 50.28 49.32 46.59 45.61 45.23 43.71 41.37 40.72 42.91 41.60 42.57 39.54 39.31 39.21 39.21 39.40 38.14 38.66
59.80 60.31 60.70 60.86 61.22 62.66 61.39 60.20 59.52 57.68 56.77 56.46 55.87 55.66 55.65 56.61 56.97 57.33 57.51 56.55 55.20 54.26 52.24 51.61 50.52 47.28 46.54 45.89 44.44 44.22 43.70 42.08 38.94 37.72 36.31 35.66 35.93 37.51 37.66 38.68 38.81 37.39 37.01
MSLP
1016.09 1015.74 1015.83 1016.19 1016.34 1016.54 1016.73 1016.70 1016.84 1017.01 1017.25 1017.35 1017.59 1017.84 1018.06 1018.31 1018.44 1018.36 1018.54 1018.53 1018.71 1018.82 1018.90 1019.03 1019.27 1019.30 1019.35 1019.53 1019.71 1019.88 1019.89 1019.98 1020.05 1020.13 1020.19 1020.14 1020.19 1020.30 1020.28 1020.28 1020.31 1020.52 1020.49
1015.45 1015.71 1015.82 1016.22 1016.46 1016.61 1016.88 1017.12 1017.08 1017.25 1017.57 1017.70 1017.82 1017.99 1018.37 1018.57 1018.68 1018.91 1018.95 1018.84 1019.14 1019.22 1019.38 1019.64 1019.70 1019.81 1020.05 1020.25 1020.34 1020.38 1020.47 1020.57 1020.63 1020.71 1020.82 1020.85 1020.96 1020.96 1021.01 1021.09 1021.18 1021.08 1020.98
1015.55 1015.78 1016.02 1016.31 1016.55 1016.91 1017.16 1017.19 1017.25 1017.36 1017.86 1018.00 1018.08 1018.44 1018.95 1019.00 1019.11 1019.29 1019.31 1019.54 1019.50 1019.70 1019.98 1020.07 1020.24 1020.41 1020.69 1020.79 1020.73 1020.83 1020.91 1020.98 1021.05 1021.16 1021.30 1021.34 1021.48 1021.50 1021.58 1021.57 1021.52 1021.49 1021.57
1015.55 1015.95 1016.28 1016.63 1016.72 1017.08 1017.31 1017.45 1017.23 1017.56 1017.98 1018.33 1018.54 1018.87 1019.04 1019.19 1019.39 1019.54 1019.69 1019.93 1020.11 1020.27 1020.38 1020.64 1020.94 1021.04 1021.19 1021.20 1021.19 1021.19 1021.18 1021.31 1021.59 1021.79 1021.79 1021.87 1021.85 1022.03 1021.95 1021.99 1022.09 1022.08 1021.98
1015.90 1016.27 1016.62 1016.90 1017.03 1017.36 1017.32 1017.72 1017.63 1017.86 1018.60 1018.93 1019.10 1019.28 1019.36 1019.63 1019.95 1020.15 1020.35 1020.56 1020.75 1020.89 1021.06 1021.14 1021.50 1021.46 1021.63 1021.60 1021.66 1021.80 1021.79 1022.04 1022.30 1022.47 1022.42 1022.43 1022.35 1022.44 1022.52 1022.62 1022.51 1022.35 1022.39
1016.24 1016.59 1016.79 1017.14 1017.43 1017.59 1017.85 1017.94 1018.00 1018.46 1018.88 1019.18 1019.47 1019.69 1019.80 1020.04 1020.39 1020.53 1020.79 1021.08 1021.32 1021.40 1021.60 1021.77 1021.92 1021.84 1021.99 1021.96 1022.00 1022.14 1022.42 1022.55 1022.78 1022.95 1022.92 1022.82 1022.85 1022.92 1022.96 1022.87 1022.81 1022.74 1022.82
1016.61 1016.93 1017.31 1017.50 1017.67 1017.99 1018.18 1018.30 1018.44 1018.89 1019.27 1019.66 1019.93 1020.07 1020.37 1020.56 1020.84 1021.05 1021.34 1021.54 1021.66 1021.81 1022.00 1022.16 1022.19 1022.19 1022.31 1022.36 1022.31 1022.50 1022.93 1022.94 1023.14 1023.40 1023.47 1023.43 1023.35 1023.23 1023.24 1023.25 1023.25 1023.29 1023.30
1016.75 1017.31 1017.61 1017.90 1018.11 1018.40 1018.56 1018.75 1018.93 1019.27 1019.60 1019.96 1020.25 1020.50 1020.70 1020.93 1021.25 1021.48 1021.65 1021.79 1021.93 1022.20 1022.46 1022.59 1022.55 1022.61 1022.61 1022.68 1022.88 1023.12 1023.10 1023.25 1023.65 1023.91 1023.85 1023.79 1023.61 1023.63 1023.76 1023.78 1023.82 1023.72 1023.81
1017.15 1017.58 1018.02 1018.22 1018.57 1018.79 1018.98 1019.15 1019.34 1019.65 1019.99 1020.38 1020.76 1021.04 1021.22 1021.42 1021.66 1021.91 1022.18 1022.27 1022.42 1022.67 1022.84 1022.96 1022.99 1022.96 1023.03 1023.04 1023.30 1023.57 1023.57 1023.75 1024.10 1024.14 1024.14 1024.34 1024.16 1024.14 1024.16 1024.10 1024.19 1024.11 1024.15
1017.73 1018.05 1018.32 1018.60 1018.90 1019.17 1019.23 1019.41 1019.83 1020.19 1020.50 1020.89 1021.08 1021.40 1021.76 1022.01 1022.29 1022.58 1022.64 1022.71 1022.80 1023.06 1023.25 1023.30 1023.28 1023.39 1023.39 1023.38 1023.50 1023.79 1023.98 1024.29 1024.52 1024.66 1024.72 1024.59 1024.54 1024.53 1024.52 1024.55 1024.55 1024.61 1024.53
1018.30 1018.51 1018.73 1018.86 1019.13 1019.32 1019.61 1020.02 1020.32 1020.67 1020.98 1021.46 1021.66 1022.03 1022.27 1022.57 1022.80 1022.92 1023.05 1023.16 1023.22 1023.40 1023.55 1023.65 1023.72 1023.78 1023.82 1023.89 1023.77 1024.09 1024.41 1024.79 1024.91 1025.12 1025.07 1024.82 1024.84 1024.83 1024.87 1025.00 1024.98 1024.84 1024.75
1018.50 1018.75 1018.88 1019.03 1019.32 1019.62 1020.02 1020.45 1020.83 1021.18 1021.59 1021.83 1022.03 1022.35 1022.67 1022.86 1023.13 1023.20 1023.40 1023.50 1023.52 1023.63 1023.81 1023.95 1024.08 1024.17 1024.08 1024.23 1024.26 1024.47 1024.81 1025.07 1025.33 1025.48 1025.26 1025.15 1025.15 1025.16 1025.31 1025.28 1025.21 1025.17 1025.18
1018.31 1018.70 1018.99 1019.33 1019.64 1019.89 1020.43 1020.99 1021.33 1021.58 1021.85 1022.05 1022.36 1022.55 1022.77 1023.12 1023.35 1023.59 1023.79 1023.86 1023.93 1023.96 1024.16 1024.26 1024.39 1024.46 1024.54 1024.53 1024.55 1024.89 1025.19 1025.46 1025.83 1025.92 1025.80 1025.60 1025.45 1025.54 1025.51 1025.55 1025.57 1025.62 1025.63
1018.13 1018.66 1019.16 1019.43 1019.76 1020.35 1020.67 1021.13 1021.45 1021.75 1022.02 1022.31 1022.42 1022.55 1022.96 1023.43 1023.63 1023.86 1023.94 1024.06 1024.12 1024.14 1024.32 1024.38 1024.51 1024.59 1024.61 1024.80 1024.84 1025.19 1025.54 1025.89 1026.23 1026.39 1026.30 1026.10 1025.95 1025.81 1025.94 1026.09 1026.05 1026.06 1026.14
1018.04 1018.64 1019.11 1019.34 1019.77 1020.38 1020.44 1020.91 1021.19 1021.73 1022.03 1022.17 1022.34 1022.57 1022.91 1023.34 1023.58 1023.78 1023.97 1024.09 1024.22 1024.30 1024.51 1024.77 1024.88 1025.07 1025.12 1025.14 1025.22 1025.52 1025.99 1026.34 1026.57 1026.73 1026.80 1026.60 1026.51 1026.51 1026.60 1026.53 1026.45 1026.49 1026.54
1017.77 1018.46 1019.03 1019.47 1019.71 1020.08 1020.21 1020.62 1020.93 1021.57 1021.88 1022.09 1022.38 1022.60 1022.72 1023.06 1023.39 1023.67 1024.03 1024.21 1024.38 1024.40 1024.63 1024.82 1024.99 1025.20 1025.46 1025.49 1025.67 1025.87 1026.32 1026.59 1026.80 1027.05 1027.11 1027.08 1027.08 1027.18 1027.10 1026.99 1026.99 1026.99 1026.83
1017.52 1018.32 1018.97 1019.40 1019.69 1019.90 1020.17 1020.47 1020.85 1021.38 1021.74 1022.10 1022.34 1022.48 1022.67 1023.02 1023.30 1023.66 1024.02 1024.24 1024.37 1024.47 1024.65 1024.85 1025.14 1025.36 1025.64 1025.68 1026.00 1026.07 1026.38 1026.74 1027.07 1027.28 1027.41 1027.58 1027.74 1027.64 1027.55 1027.54 1027.57 1027.39 1027.31
1017.31 1018.15 1018.86 1019.27 1019.71 1019.90 1020.03 1020.31 1020.64 1021.16 1021.63 1022.01 1022.32 1022.54 1022.57 1022.99 1023.24 1023.72 1024.10 1024.28 1024.35 1024.56 1024.80 1025.09 1025.32 1025.76 1026.00 1026.20 1026.41 1026.57 1026.76 1026.97 1027.22 1027.42 1027.66 1027.95 1028.04 1028.05 1028.00 1028.03 1027.98 1027.94 1027.79
1016.90 1017.86 1018.60 1019.09 1019.51 1019.78 1019.89 1020.22 1020.52 1020.92 1021.38 1021.76 1022.30 1022.52 1022.62 1022.93 1023.22 1023.67 1024.05 1024.29 1024.42 1024.70 1024.94 1025.05 1025.58 1025.73 1026.23 1026.53 1026.78 1027.04 1027.17 1027.24 1027.35 1027.56 1027.87 1028.03 1028.15 1028.33 1028.42 1028.32 1028.39 1028.42 1028.27
1016.80 1017.53 1018.30 1018.96 1019.28 1019.54 1019.85 1020.22 1020.56 1021.01 1021.36 1021.66 1022.06 1022.42 1022.67 1022.86 1023.13 1023.44 1023.88 1024.26 1024.47 1024.85 1025.16 1025.31 1025.71 1025.95 1026.38 1026.63 1026.96 1027.31 1027.50 1027.61 1027.70 1027.85 1027.97 1028.07 1028.27 1028.44 1028.60 1028.80 1028.93 1028.83 1028.66
1016.82 1017.38 1017.98 1018.55 1019.07 1019.55 1020.01 1020.40 1020.85 1021.34 1021.63 1021.93 1021.96 1022.08 1022.51 1022.82 1023.03 1023.27 1023.95 1024.27 1024.49 1024.87 1025.19 1025.38 1025.78 1026.16 1026.68 1026.76 1027.25 1027.82 1027.99 1027.97 1027.96 1028.04 1028.14 1028.33 1028.43 1028.60 1028.79 1029.01 1029.17 1029.20 1029.22
1016.52 1017.05 1017.62 1018.26 1018.79 1019.37 1019.84 1020.28 1020.64 1021.20 1021.64 1021.82 1021.90 1021.80 1022.15 1022.59 1023.05 1023.47 1023.85 1024.17 1024.52 1024.90 1025.15 1025.44 1025.71 1026.36 1026.74 1026.89 1027.40 1028.03 1028.55 1028.58 1028.27 1028.27 1028.27 1028.41 1028.75 1028.83 1029.00 1029.12 1029.24 1029.38 1029.52
1016.16 1016.49 1016.98 1017.79 1018.49 1019.14 1019.60 1020.16 1020.80 1021.36 1021.81 1022.15 1022.15 1022.03 1022.11 1022.34 1022.87 1023.33 1023.70 1024.09 1024.45 1024.69 1025.13 1025.37 1025.67 1026.10 1026.72 1027.01 1026.99 1027.33 1028.29 1028.39 1028.57 1028.60 1028.55 1028.58 1028.87 1029.05 1029.19 1029.27 1029.42 1029.54 1029.69
1015.60 1016.20 1016.65 1017.25 1018.02 1018.69 1019.27 1019.84 1020.33 1020.90 1021.56 1021.81 1021.83 1021.90 1021.99 1022.23 1022.67 1023.12 1023.56 1023.92 1024.29 1024.69 1025.14 1025.27 1025.44 1025.88 1026.30 1026.84 1027.05 1027.04 1027.16 1027.53 1028.39 1029.08 1028.92 1028.93 1028.92 1029.06 1029.21 1029.37 1029.57 1029.67 1029.78
1015.05 1015.52 1016.25 1016.88 1017.54 1018.05 1018.79 1019.15 1019.86 1020.60 1021.01 1021.29 1021.69 1021.70 1022.00 1022.37 1022.50 1022.83 1023.31 1023.76 1024.15 1024.49 1024.80 1025.06 1025.44 1025.75 1026.00 1026.52 1026.87 1027.13 1027.43 1027.67 1027.78 1028.41 1029.12 1029.19 1029.15 1029.25 1029.37 1029.54 1029.73 1029.92 1029.99
1014.66 1015.19 1015.77 1016.29 1016.93 1017.45 1018.08 1018.52 1019.00 1019.82 1020.58 1021.16 1021.51 1021.67 1021.94 1022.35 1022.60 1022.56 1022.98 1023.47 1023.89 1024.35 1024.70 1025.00 1025.35 1025.67 1025.94 1026.19 1026.55 1026.79 1027.13 1027.53 1027.87 1028.10 1028.82 1029.24 1029.46 1029.54 1029.72 1029.91 1030.02 1030.20 1030.23
Wind_Speed
4 8 12 13 15 15 16 17 17 16 16 17 18 18 19 18 18 18 18 18 19 20 22 23 23 23 24 24 24 23 23 23 24 23 21 23 23 24 25 22 20 17 22
11 9 14 15 16 17 16 17 17 16 16 16 17 20 19 19 19 18 19 20 20 22 22 22 22 22 21 21 20 19 20 21 20 20 18 16 20 21 22 20 18 17 20
12 11 12 15 17 17 17 18 17 17 16 17 18 19 18 20 20 20 21 21 21 21 21 22 22 21 19 18 16 21 21 20 21 18 13 8 13 19 21 19 20 20 20
12 11 10 16 18 18 18 15 19 20 19 17 18 18 20 20 21 21 22 22 22 22 22 21 19 18 18 17 17 18 21 20 19 14 9 9 12 19 20 20 20 20 20
13 11 12 17 18 18 18 16 19 23 19 18 17 18 19 21 22 22 22 21 20 20 20 20 17 17 16 16 16 17 21 22 18 12 8 7 9 16 20 19 18 20 20
13 11 14 18 19 18 17 18 21 21 20 19 18 18 19 21 21 21 21 18 18 18 19 18 16 16 15 15 15 19 21 20 15 9 8 10 8 18 19 19 19 20 20
12 11 12 18 18 17 17 16 19 21 20 19 18 19 19 20 20 20 19 17 18 18 19 17 16 16 14 14 19 18 19 18 11 8 7 6 9 19 19 19 19 19 19
14 11 12 16 18 17 16 16 17 19 19 19 18 17 18 19 19 18 18 16 17 18 17 16 16 14 13 15 19 18 20 18 10 8 7 5 15 18 18 18 18 18 18
12 11 10 11 13 14 14 15 18 18 18 18 17 17 16 17 17 17 15 15 17 17 16 15 14 13 11 12 13 16 17 16 8 6 7 4 15 17 17 17 17 18 17
11 10 8 7 6 7 10 17 17 17 18 16 16 15 15 15 15 14 12 14 15 15 14 13 12 9 9 10 11 13 16 15 8 6 4 6 16 17 17 17 17 17 17
10 10 6 7 8 9 10 11 14 16 16 13 12 13 9 5 7 8 10 12 13 12 12 11 9 6 8 8 11 17 12 5 7 4 2 12 15 17 17 16 16 17 17
12 11 7 9 8 9 8 9 8 8 5 5 5 6 4 6 5 7 7 10 11 10 9 9 7 3 5 3 4 9 5 7 5 4 4 12 15 16 16 16 17 17 17
13 11 11 10 8 8 7 5 3 3 3 3 5 5 6 5 4 3 3 3 3 5 3 4 3 2 4 3 4 5 6 6 4 4 7 11 14 16 16 17 17 17 17
13 14 13 9 10 6 5 4 5 4 3 3 5 7 5 3 4 4 3 3 2 1 3 3 3 4 6 6 6 7 7 6 4 3 5 11 14 17 17 16 16 17 17
14 15 13 10 11 8 9 5 6 5 4 4 5 5 5 4 4 4 3 3 3 3 4 4 4 4 5 6 6 8 7 7 6 4 3 14 15 16 15 15 16 17 17
14 16 12 9 8 10 8 6 6 5 5 5 4 5 6 5 5 5 4 4 4 4 4 4 4 5 4 5 6 6 7 6 6 6 4 7 14 14 15 16 17 16 17
13 14 13 11 7 9 7 5 5 6 6 5 4 6 7 6 5 6 4 4 3 3 5 4 4 4 4 4 6 5 6 6 5 6 5 4 6 13 15 16 16 17 17
15 14 12 11 9 7 6 5 4 6 6 5 4 4 6 6 7 5 4 4 3 3 4 3 3 4 4 4 3 4 4 5 6 6 5 4 4 4 10 14 15 16 16
17 14 12 10 12 9 7 4 5 7 5 6 4 4 5 7 6 6 4 4 4 3 3 3 3 3 3 3 5 4 4 5 5 5 6 6 6 5 3 11 13 14 15
14 15 13 11 11 10 4 4 4 4 3 4 6 5 6 5 6 6 5 5 4 4 3 2 3 3 3 4 5 5 4 4 4 5 5 5 5 6 5 5 4 5 15
13 13 15 13 12 10 5 4 4 4 3 3 4 8 7 5 4 6 5 5 3 4 4 4 3 4 3 2 4 3 3 3 4 4 4 4 5 5 6 5 4 4 5
16 15 13 12 10 9 7 3 4 4 2 3 3 7 8 7 6 6 6 4 5 4 5 4 4 2 2 1 3 3 2 3 2 2 3 4 5 4 5 5 6 6 5
17 17 17 14 12 8 7 5 4 4 4 2 1 2 4 8 7 7 6 5 5 4 4 3 4 5 3 0 2 4 3 3 2 1 1 3 5 3 3 4 5 5 5
17 16 16 17 15 10 11 10 12 9 6 4 4 3 4 6 6 7 6 6 6 4 5 4 4 3 4 4 1 1 2 4 4 1 2 1 3 4 4 3 4 5 5
17 17 16 16 15 15 12 13 11 8 5 3 3 7 5 5 6 8 7 7 6 4 5 6 4 4 3 4 3 2 1 3 2 4 3 2 2 0 2 4 4 4 5
15 15 16 16 16 16 15 15 16 14 10 6 5 5 5 4 4 6 7 6 6 5 6 5 4 5 4 4 3 3 3 3 3 3 3 1 3 2 2 3 4 4 4
Wind_Direction
143 139 126 131 127 126 123 116 105 103 103 106 104 102 102 99 96 95 95 93 91 91 88 89 91 89 90 91 90 90 86 80 74 68 66 65 65 64 60 56 55 55 57
133 130 122 129 126 123 118 117 111 104 104 104 102 99 96 97 94 95 95 91 93 91 89 93 90 87 92 87 87 85 81 82 78 72 64 61 67 68 65 65 65 66 65
120 120 117 125 120 120 121 116 110 105 102 103 98 97 101 100 101 97 91 89 89 90 93 90 88 87 82 71 75 84 82 74 69 62 69 64 70 69 70 69 66 65 64
120 112 119 122 120 121 112 108 103 95 95 93 93 97 101 98 97 93 89 89 88 89 88 87 88 85 72 66 75 85 84 75 65 57 59 53 68 68 68 66 69 68 65
113 116 121 122 120 119 115 114 100 99 100 98 95 95 97 98 95 93 92 88 87 88 89 88 85 77 66 60 68 92 86 73 67 60 52 57 66 67 69 72 68 67 67
113 114 122 119 121 114 114 108 105 102 102 98 98 100 96 97 95 94 93 91 94 94 92 90 85 76 63 55 63 102 87 86 76 56 46 51 66 73 71 70 68 67 65
111 112 116 117 114 114 111 105 104 105 104 104 100 98 103 101 98 96 96 96 96 94 92 87 80 72 62 55 55 89 89 83 77 61 49 52 72 73 70 67 66 66 64
112 116 117 116 116 116 113 111 106 104 103 103 99 100 99 99 96 95 93 94 95 95 93 89 79 72 62 57 62 80 90 85 74 68 53 45 72 73 72 71 68 66 63
112 114 117 116 117 116 118 114 102 99 98 98 99 93 90 95 94 92 95 98 99 99 95 91 84 71 61 57 57 68 87 86 76 61 63 44 74 75 72 70 68 65 61
116 116 113 107 104 110 110 99 101 100 94 91 91 86 84 81 86 89 79 93 102 101 101 99 92 81 66 46 44 70 87 79 70 56 57 74 77 75 73 70 69 68 64
123 125 117 124 104 101 102 100 95 98 98 103 107 110 94 85 83 84 96 94 99 106 112 109 101 83 57 34 43 98 92 87 73 52 43 80 78 75 72 71 68 65 62
140 137 127 119 117 112 114 101 101 104 116 126 121 97 106 104 107 101 103 109 112 115 114 109 107 91 30 14 66 82 97 92 75 53 32 80 81 78 73 68 65 62 58
142 138 134 136 134 125 117 115 110 116 133 134 135 130 119 117 114 111 116 98 105 102 91 99 98 84 101 78 54 85 90 81 73 52 36 56 76 76 76 70 62 59 57
143 140 148 149 142 131 134 139 146 145 143 145 152 133 120 126 130 136 139 147 153 148 120 113 81 72 70 77 83 83 96 96 87 65 47 59 77 73 67 66 66 63 61
144 147 153 152 149 153 154 169 150 152 146 148 144 140 142 148 153 152 139 121 100 109 94 88 94 81 66 63 64 87 95 97 93 81 61 72 73 74 70 68 66 63 60
144 146 154 159 137 158 163 159 150 139 147 140 134 148 139 120 122 103 106 94 87 93 96 107 107 98 92 92 74 86 107 111 105 107 87 77 78 75 74 71 67 63 59
148 145 158 160 162 156 166 155 149 152 144 143 148 142 138 127 126 121 114 103 115 100 102 95 88 91 90 76 89 90 98 119 118 107 94 81 78 77 75 72 68 62 58
147 152 160 167 168 164 167 153 143 141 144 145 148 147 147 136 136 118 120 126 125 107 109 96 97 82 95 107 100 78 94 104 112 115 110 120 88 70 75 76 69 61 55
152 157 157 161 167 165 159 155 147 141 141 145 140 136 137 137 139 130 135 138 134 110 103 115 58 113 104 98 103 94 94 101 109 112 111 106 108 106 89 84 76 65 51
154 161 159 166 164 162 152 151 135 135 136 137 152 151 144 150 157 145 133 138 133 123 110 102 108 70 123 136 97 83 83 95 108 112 111 105 102 103 105 85 58 50 52
161 157 164 164 165 162 169 164 153 158 148 118 160 153 146 152 136 124 131 143 137 141 157 149 114 108 62 119 91 37 37 76 120 121 119 119 102 105 102 99 90 70 44
164 169 165 168 162 169 177 170 146 149 144 148 161 155 157 154 143 139 147 149 138 127 131 139 129 108 99 174 125 109 132 344 360 114 124 123 127 118 108 103 94 78 60
176 174 173 179 181 178 173 136 99 80 69 78 155 139 155 147 153 148 157 151 154 133 149 152 140 145 154 245 164 146 119 194 137 334 170 114 132 122 118 110 100 86 68
181 177 175 175 189 187 176 166 166 172 164 188 176 173 162 163 163 154 158 158 150 143 151 165 152 156 137 168 67 73 90 144 161 144 357 105 139 138 147 121 114 89 67
176 177 173 174 186 198 186 169 170 173 175 168 170 167 165 182 175 156 158 157 155 157 160 156 147 146 156 146 155 153 105 59 84 134 181 220 20 20 124 134 121 79 51
175 171 175 177 190 192 183 177 178 175 175 174 182 170 174 177 179 166 159 161 163 156 158 158 147 145 142 128 134 144 156 165 188 146 123 168 164 240 95 97 85 76 45